Weather History for Pittsburgh, PA

Change the Weather History Date:

Thursday, August 8, 2013

  Actual Average Record
Temperature  
Mean Temperature 75 °F 72 °F  
Max Temperature 84 °F 82 °F 96 °F (1900)
Min Temperature 66 °F 62 °F 49 °F (1989)
Degree Days  
Heating Degree Days 0 0  
Month to date heating degree days 1 0  
Since 1 June heating degree days 18 42  
Since 1 July heating degree days 2 4  
Cooling Degree Days 10 7  
Month to date cooling degree days 36 60  
Year to date cooling degree days 561 503  
Since 1 June cooling degree days 457 451  
Growing Degree Days 25 (Base 50)    
Moisture  
Dew Point 67 °F    
Average Humidity 77    
Maximum Humidity 93    
Minimum Humidity 61    
Precipitation  
Precipitation T in 0.12 in 1.39 in (2001)
Month to date precipitation 0.48 0.95  
Year to date precipitation 24.46 24.18  
Snow  
Snow 0.00 in 0.00 in 0.00 in (2002)
Month to date snowfall 0.0 0.0  
Since 1 July snowfall 0.0 0.0  
Snow Depth 0.00 in    
Sea Level Pressure  
Sea Level Pressure 29.97 in    
Wind  
Wind Speed 4 mph (South)    
Max Wind Speed 13 mph    
Max Gust Speed 16 mph    
Visibility 10 miles    
Events Rain    
T = Trace of Precipitation, MM = Missing Value Source: NWS Daily Summary

Daily Weather History Graph

Daily Weather History Graph

Search for Another Location

Airport:

Trip Planner

Search our weather history database for the weather conditions in past years. The results will help you decide how hot, cold, wet, or windy it might be!

Date:

Astronomy

Aug. 08, 2013 Rise Set
Actual Time 6:24 AM EDT 8:27 PM EDT
Civil Twilight 5:55 AM EDT 8:57 PM EDT
Nautical Twilight 5:18 AM EDT 9:33 PM EDT
Astronomical Twilight 4:38 AM EDT 10:12 PM EDT
Moon 8:10 AM EDT (8/8) 9:04 PM EDT (8/8)
Length of Visible Light 15h 01m
Length of Day
14h 02m
Waxing Crescent, 3% of the Moon is Illuminated
Aug 8
Waxing Crescent
Aug 14
First Quarter
Aug 20
Full
Aug 28
Last Quarter
Sep 5
New

Hourly Weather History & Observations

Time (EDT) Temp. Heat Index Dew Point Humidity Pressure Visibility Wind Dir Wind Speed Gust Speed Precip Events Conditions
12:51 AM 68.0 °F - 64.9 °F 90% 29.99 in 10.0 mi South 3.5 mph - N/A   Mostly Cloudy
1:51 AM 69.1 °F - 64.9 °F 87% 29.97 in 10.0 mi South 4.6 mph - N/A   Overcast
2:51 AM 69.1 °F - 64.9 °F 87% 29.97 in 10.0 mi Calm Calm - N/A   Overcast
3:51 AM 69.1 °F - 64.9 °F 87% 29.96 in 10.0 mi Calm Calm - N/A   Mostly Cloudy
4:51 AM 66.9 °F - 64.0 °F 90% 29.97 in 9.0 mi Calm Calm - N/A   Mostly Cloudy
5:51 AM 66.9 °F - 64.9 °F 93% 29.98 in 10.0 mi Calm Calm - N/A   Mostly Cloudy
6:08 AM 66.2 °F - 64.4 °F 94% 29.98 in 9.0 mi SSE 3.5 mph - N/A   Overcast
6:29 AM 66.2 °F - 64.4 °F 94% 29.98 in 8.0 mi Calm Calm - N/A   Mostly Cloudy
6:51 AM 66.9 °F - 64.9 °F 93% 29.98 in 7.0 mi Calm Calm - N/A   Mostly Cloudy
7:51 AM 69.1 °F - 66.0 °F 90% 29.99 in 10.0 mi SSE 3.5 mph - N/A   Overcast
8:25 AM 69.8 °F - 66.2 °F 88% 29.99 in 10.0 mi Calm Calm - N/A   Overcast
8:51 AM 71.1 °F - 66.9 °F 87% 30.00 in 10.0 mi Calm Calm - N/A   Overcast
9:04 AM 71.6 °F - 66.2 °F 83% 29.99 in 10.0 mi South 3.5 mph - N/A   Mostly Cloudy
9:43 AM 75.2 °F - 69.8 °F 83% 29.99 in 10.0 mi SSW 4.6 mph - N/A   Overcast
9:51 AM 75.0 °F - 69.1 °F 82% 29.99 in 10.0 mi South 4.6 mph - N/A   Overcast
10:23 AM 75.2 °F - 69.8 °F 83% 30.00 in 10.0 mi SSE 4.6 mph - N/A   Overcast
10:51 AM 75.9 °F - 69.1 °F 79% 29.99 in 10.0 mi SW 4.6 mph - N/A   Overcast
11:22 AM 77.0 °F - 69.8 °F 78% 29.99 in 10.0 mi SSW 4.6 mph - N/A   Mostly Cloudy
11:51 AM 78.1 °F - 70.0 °F 76% 30.00 in 10.0 mi Variable 3.5 mph - N/A   Overcast
12:51 PM 80.1 °F 83.2 °F 70.0 °F 71% 29.99 in 10.0 mi Variable 5.8 mph - 0.00 in Rain Light Rain
1:51 PM 81.0 °F 84.4 °F 70.0 °F 69% 29.98 in 10.0 mi WSW 6.9 mph - 0.00 in   Mostly Cloudy
2:51 PM 84.0 °F 87.8 °F 69.1 °F 61% 29.96 in 10.0 mi SW 9.2 mph - N/A   Mostly Cloudy
3:51 PM 82.9 °F 86.5 °F 69.1 °F 63% 29.95 in 10.0 mi SW 9.2 mph - N/A   Mostly Cloudy
4:51 PM 82.9 °F 86.5 °F 69.1 °F 63% 29.93 in 10.0 mi South 8.1 mph - N/A   Mostly Cloudy
5:51 PM 82.9 °F 86.5 °F 69.1 °F 63% 29.93 in 10.0 mi SSW 9.2 mph - N/A   Mostly Cloudy
6:51 PM 81.0 °F 84.1 °F 69.1 °F 67% 29.93 in 10.0 mi South 11.5 mph - N/A   Overcast
7:51 PM 79.0 °F - 69.1 °F 72% 29.94 in 10.0 mi South 4.6 mph - N/A   Overcast
8:34 PM 75.2 °F - 66.2 °F 73% 29.96 in 10.0 mi East 3.5 mph - N/A   Mostly Cloudy
8:51 PM 75.0 °F - 66.9 °F 76% 29.96 in 10.0 mi NE 3.5 mph - N/A   Mostly Cloudy
9:45 PM 75.2 °F - 66.2 °F 73% 29.97 in 10.0 mi NE 3.5 mph - N/A   Overcast
9:51 PM 75.0 °F - 66.9 °F 76% 29.97 in 10.0 mi NNE 5.8 mph - N/A   Overcast
10:51 PM 73.0 °F - 66.9 °F 81% 29.95 in 10.0 mi NW 4.6 mph - N/A   Overcast
11:51 PM 73.0 °F - 66.9 °F 81% 29.93 in 10.0 mi Calm Calm - N/A   Overcast